EW8359 Weather Reports


time (UTC)temp
C
wind
direction
speed
KPH
gust
KPH
rain 1hr
cm
rain 24hr
cm
rain mn
cm
humidity
%
barometer
mb
20260509164554 10 190 0.0 0.0 0.03 0.03 0.03 77 1013.0
20260509163102 10 190 0.0 3.2 0.03 0.03 0.03 74 1013.1
20260509161556 10 201 0.0 6.4 0.00 0.00 0.00 70 1013.3
20260509160051 10 207 0.0 0.0 0.00 0.00 0.00 66 1013.2
20260509154602 10 232 0.0 4.8 0.00 0.00 0.00 61 1013.3
20260509153050 11 144 0.0 12.9 0.00 0.00 0.00 56 1013.4
20260509151552 12 187 0.0 11.3 0.00 0.00 0.00 49 1013.3
20260509150104 12 198 0.0 11.3 0.00 0.00 0.00 42 1013.0
20260509144647 12 130 0.0 6.4 0.00 0.00 0.00 43 1012.8
20260509143053 13 94 0.0 1.6 0.00 0.00 0.00 44 1012.6
20260509141547 12 200 0.0 6.4 0.00 0.00 0.00 44 1012.5
20260509140045 12 82 0.0 3.2 0.00 0.00 0.00 40 1012.5
20260509134546 13 156 0.0 4.8 0.00 0.00 0.00 43 1012.5
20260509133108 13 198 0.0 6.4 0.00 0.00 0.00 45 1012.5
20260509131541 13 84 0.0 8.0 0.00 0.00 0.00 46 1012.7
20260509130039 12 206 0.0 6.4 0.00 0.00 0.00 45 1012.9
20260509124546 12 136 0.0 14.5 0.00 0.00 0.00 47 1012.8
20260509123039 12 126 0.0 6.4 0.00 0.00 0.00 52 1012.9
20260509121546 11 58 0.0 0.0 0.00 0.00 0.00 59 1013.1
20260509120027 10 72 0.0 0.0 0.00 0.00 0.00 65 1013.0
20260509114545 8 187 0.0 0.0 0.00 0.00 0.00 72 1013.1
20260509113017 5 188 0.0 0.0 0.00 0.00 0.00 83 1013.1
20260509111516 3 188 0.0 0.0 0.00 0.00 0.00 86 1013.3
20260509110016 2 188 0.0 0.0 0.00 0.00 0.00 88 1013.3
20260509104520 2 188 0.0 0.0 0.00 0.00 0.00 88 1013.1
20260509103011 1 188 0.0 0.0 0.00 0.00 0.00 88 1012.8
20260509101512 1 188 0.0 0.0 0.00 0.00 0.00 88 1012.6
20260509100008 1 188 0.0 0.0 0.00 0.00 0.00 87 1012.4
20260509094507 1 188 0.0 0.0 0.00 0.00 0.00 86 1012.2
20260509093004 1 188 0.0 0.0 0.00 0.00 0.00 85 1012.2
20260509091503 1 188 0.0 0.0 0.00 0.00 0.00 83 1012.0
20260509090004 1 188 0.0 0.0 0.00 0.00 0.00 83 1011.8
20260509084605 1 188 0.0 0.0 0.00 0.00 0.00 82 1011.7
20260509083059 2 188 0.0 0.0 0.00 0.00 0.00 81 1011.8
20260509081555 2 188 0.0 0.0 0.00 0.00 0.00 79 1011.9
20260509080108 2 188 0.0 0.0 0.00 0.00 0.00 78 1012.0
20260509074553 2 188 0.0 0.0 0.00 0.00 0.00 79 1011.9
20260509073055 3 188 0.0 0.0 0.00 0.00 0.00 79 1011.9
20260509071546 3 188 0.0 0.0 0.00 0.00 0.00 79 1011.8
20260509070049 3 188 0.0 0.0 0.00 0.00 0.00 77 1011.8
20260509064541 3 188 0.0 0.0 0.00 0.00 0.00 77 1011.8
20260509063039 4 188 0.0 0.0 0.00 0.00 0.00 75 1011.6
20260509061535 4 188 0.0 0.0 0.00 0.00 0.00 76 1011.5
20260509060035 5 188 0.0 0.0 0.00 0.00 0.00 74 1011.4
20260509054530 5 188 0.0 0.0 0.00 0.00 0.00 72 1011.4
20260509053039 5 188 0.0 0.0 0.00 0.00 0.00 74 1011.3
20260509051529 5 188 0.0 0.0 0.00 0.00 0.00 74 1011.3
20260509050042 5 188 0.0 0.0 0.00 0.00 0.00 75 1011.2
20260509044521 5 188 0.0 0.0 0.00 0.00 0.00 76 1011.3
20260509043031 5 188 0.0 0.0 0.00 0.00 0.00 76 1011.4
20260509041514 5 188 0.0 0.0 0.00 0.00 0.00 74 1011.3
20260509040011 5 188 0.0 0.0 0.00 0.00 0.00 73 1011.1
20260509034510 6 188 0.0 0.0 0.00 0.00 0.00 72 1010.9
20260509033012 6 188 0.0 0.0 0.00 0.00 0.00 72 1010.8
20260509031508 6 188 0.0 0.0 0.00 0.00 0.00 72 1010.7
20260509030017 6 188 0.0 0.0 0.00 0.00 0.00 72 1010.5
20260509024504 6 188 0.0 0.0 0.00 0.00 0.00 70 1010.3
20260509023005 6 188 0.0 0.0 0.00 0.00 0.00 67 1010.3
20260509021502 5 188 0.0 0.0 0.00 0.00 0.00 65 1010.2
20260509020059 5 188 0.0 0.0 0.00 0.00 0.00 66 1009.9
20260509014558 5 188 0.0 0.0 0.00 0.00 0.00 67 1009.7
20260509013103 5 188 0.0 0.0 0.00 0.00 0.00 65 1009.5
20260509011602 5 188 0.0 0.0 0.00 0.00 0.00 63 1009.3
20260509010055 6 188 0.0 0.0 0.00 0.00 0.00 62 1008.9
20260509004557 6 188 0.0 0.0 0.00 0.00 0.00 60 1008.7
20260509003046 7 188 0.0 1.6 0.00 0.00 0.00 56 1008.3
20260509001549 8 188 0.0 0.0 0.00 0.00 0.00 52 1008.2
20260509000046 8 188 0.0 0.0 0.00 0.00 0.00 48 1008.1
20260508234541 10 188 0.0 0.0 0.00 0.00 0.00 46 1007.9
20260508233037 10 42 0.0 0.0 0.00 0.00 0.00 42 1007.6
20260508231543 11 344 0.0 0.0 0.00 0.00 0.00 39 1007.5
20260508230034 11 9 0.0 3.2 0.00 0.00 0.00 37 1007.5
20260508224555 11 15 0.0 3.2 0.00 0.00 0.00 37 1007.5
20260508223031 12 5 0.0 3.2 0.00 0.00 0.00 37 1007.2
20260508221535 12 307 0.0 14.5 0.00 0.00 0.00 34 1007.1
20260508220034 12 279 0.0 4.8 0.00 0.00 0.00 36 1007.1
20260508214538 12 291 0.0 6.4 0.00 0.00 0.00 36 1007.1
20260508213033 12 294 0.0 12.9 0.00 0.00 0.00 35 1006.9
20260508211527 12 35 0.0 3.2 0.00 0.00 0.00 39 1006.9
20260508210027 12 76 0.0 9.7 0.00 0.00 0.00 37 1006.7
20260508204527 13 12 0.0 17.7 0.00 0.00 0.00 34 1006.5
20260508203026 13 285 3.2 16.1 0.00 0.00 0.00 33 1006.4
20260508201526 13 238 1.6 17.7 0.00 0.00 0.00 33 1006.3
20260508200037 13 346 1.6 14.5 0.00 0.00 0.00 37 1006.1
20260508194525 13 292 1.6 16.1 0.00 0.00 0.00 37 1006.1
20260508193024 12 220 3.2 16.1 0.00 0.00 0.00 39 1006.2
20260508191523 12 300 1.6 16.1 0.00 0.00 0.00 38 1006.1
20260508190022 13 252 1.6 25.7 0.00 0.00 0.00 36 1005.9
20260508184525 13 205 0.0 20.9 0.00 0.00 0.00 36 1005.8
20260508183016 13 192 0.0 22.5 0.00 0.00 0.00 34 1005.8
20260508181515 13 212 1.6 17.7 0.00 0.00 0.00 34 1005.7
20260508180015 14 246 0.0 14.5 0.00 0.00 0.00 37 1005.5
20260508174514 15 194 1.6 29.0 0.00 0.00 0.00 32 1005.5
20260508173017 15 205 1.6 16.1 0.00 0.00 0.00 29 1005.6
20260508171525 14 280 0.0 19.3 0.00 0.00 0.00 31 1005.5
20260508170011 15 78 1.6 12.9 0.00 0.00 0.00 31 1005.3